Starlink 34174

operational
NORAD ID: 64097 Int'l Des: 2025-110 Owner: SPXS Country: US Constellation: starlink
LEOCIRCULAR

About Starlink 34174

Description loading...

Live Position

Loading 3D Globe...

Upcoming Passes

Altitude History

Altitude vs Time

uPlot chart will show altitude changes over time

Two-Line Element Set

1 64097U 25110B 25260.88737051 .00022344 00000-0 56663-3 0 9993
2 64097 53.1568 113.1136 0000785 66.7122 293.3966 15.39637162 19377
Epoch: Sep 17, 2025 • Age: 27 hours

Current Status

Altitude 450.3 km
Velocity 7.64 km/s
Sub-Earth Point -11.19°S, 71.25°W
Launch Date May 23, 2025
Age 0.3 years
Type internet

Technical Details

Classification Payload
Mass 575.00 kg
Dry Mass 530.00 kg
Total Mass 575.00 kg
Length 0.30 m
Diameter 4.10 m
Span 29.00 m
Shape Box + pan
Manufacturer SPXS
Bus Type Starlink V2MO
Phase Status In Orbit
Owner/State SPXS/US

Large Constellations

Loading constellations...